Regional Weather Roundup
Issued by NWS Jackson, KY

Home | Current Version | Previous Version | Text Only | Print | Product List | Glossary On
Versions: 1 2 3 4 5 6 7 8 9 10 11 12 13 14 15 16 17 18 19 20 21 22 23 24 25 26 27 28 29 30 31 32 33 34 35 36 37 38 39 40 41 42 43 44 45 46 47 48 49 50
854
ASUS43 KJKL 180310
RWRJKL

EAST KENTUCKY HOURLY WEATHER ROUNDUP
NATIONAL WEATHER SERVICE JACKSON KY
1000 PM EST SAT FEB 17 2018

NOTE: "FAIR" INDICATES FEW OR NO CLOUDS BELOW 12,000 FEET WITH
NO SIGNIFICANT WEATHER AND/OR OBSTRUCTIONS TO VISIBILITY.

* THESE REPORTS ARE NOT UNDER NWS QUALITY CONTROL AND MAY NOT
  REPORT WEATHER SUCH AS PRECIPITATION AND FOG.

KYZ079-080-083-085-087-088-110-112-115-119-120-180400
...EASTERN KENTUCKY...

CITY           SKY/WX    TMP DP  RH WIND       PRES   REMARKS
JACKSON        CLOUDY    42  41  96 SW6       30.12R
LONDON         CLOUDY    45  42  89 W9G20     30.16R
SOMERSET*      CLOUDY    43  43 100 W10       30.20R
WILLIAMSBURG*  CLOUDY    45  45 100 W8        30.17R
MIDDLESBORO*   CLOUDY    48  47  96 W3        30.16R
HARLAN APT*    CLOUDY    45  43  93 SW6       30.14R
PIKE CO APT*   CLOUDY    43  43 100 SW6       30.11R
BIG SANDY APT* CLOUDY    43  43 100 W12G18    30.11R
MOREHEAD APT*  CLOUDY    39  37  93 VRB5G12   30.13R FOG
ASHLAND*       CLOUDY    34  34 100 CALM      30.11S FOG
$$

KYZ035-036-041-042-044-050-067-078-099-180400
...CENTRAL KENTUCKY...

CITY           SKY/WX    TMP DP  RH WIND       PRES   REMARKS
MT STERLING*   CLOUDY    39  39 100 W9        30.14R WCI  33
FLEMING/MASON* CLOUDY    34  34 100 W10       30.13R FOG     WCI  26
DANVILLE*      CLOUDY    41  37  87 W9G16     30.17R
LEXINGTON      CLOUDY    41  37  86 SW13      30.14R FOG
FRANKFORT      CLOUDY    40  36  86 W8G21     30.14R WCI  34
LOUISVILLE     DRIZZLE   41  38  89 W15       30.18R
LEBANON*       CLOUDY    41  41 100 W12       30.18R FOG
GLASGOW*       CLOUDY   N/A N/A N/A W8        30.21R
BOWLING GREEN  CLOUDY    45  42  89 W9G18     30.22R
$$

KYZ091>093-OHZ055-061-077-WVZ005-015-034-035-042-180400
...SOUTHERN OHIO/WEST VIRGINIA...

CITY           SKY/WX    TMP DP  RH WIND       PRES   REMARKS
COVINGTON      DRIZZLE   35  35 100 W15       30.10R WCI  25
COLUMBUS       LGT SNOW  34  33  96 S6        30.03S FOG     WCI  29
DAYTON         CLOUDY    33  33 100 SW14      30.06R WCI  23
WILMINGTON     MIX PCPN  33  33 100 SW12      30.05R FOG     WCI  24
HUNTINGTON     FOG       39  37  92 SW7       30.10R VSB 3/4 WCI  34
CHARLESTON     DRIZZLE   40  39  97 SW7       30.08R
BECKLEY        CLOUDY    39  38  96 W10       30.05R WCI  32
BLUEFIELD      CLOUDY    43  40  89 W20G30    30.06R
LOGAN CO APT*  CLOUDY    43  41  93 W15G24    30.08R
$$

VAZ002-007-008-TNZ017-027-036-066-071-180400
...SOUTHWEST VIRGINIA/EAST TENNESSEE...

CITY           SKY/WX    TMP DP  RH WIND       PRES   REMARKS
WISE*          CLOUDY    45  45 100 W7        30.11R
JONESVILLE*    CLOUDY    45  45 100 SW6       30.18R
ABINGDON*      CLOUDY    47  47 100 W8        30.12R FOG
BRISTOL        CLOUDY    48  48 100 SW8       30.14R
MORRISTOWN*    CLOUDY    45  45 100 NW5       30.16R
SEVIERVILLE*   CLOUDY    50  48  93 W3        30.16R
KNOXVILLE      CLOUDY    47  47 100 W8        30.17R
OAK RIDGE      CLOUDY    49  48  97 SW5       30.18R
CROSSVILLE     FOG       43  42  97 W12       30.18R VSB 1/4
NASHVILLE      CLOUDY    48  44  86 NW8       30.22R
$$

...KEY TO REMARKS...
VSB - VISIBILITY IN MILES
WCI - WIND CHILL INDEX
HX  - HEAT INDEX

$$




USA.gov is the U.S. government's official web portal to all federal, state and local government web resources and services.